Wind_Speed
10 6 2 4 1 2 9 6 2 7 3 3 4 3 5 4 2 2 15 16 20 19 17 15 15 16 16 16 15 14 14 14 14 13 12 10 9 8 7 7 7 6 7 9 10 10 9 7 8
10 5 1 3 3 10 8 5 8 4 9 12 10 6 4 4 3 11 16 16 19 18 17 15 14 14 15 14 14 14 13 11 11 10 11 10 9 8 7 7 7 7 8 9 8 8 8 8 11
9 4 1 2 2 10 8 5 8 11 7 3 4 6 3 3 9 16 12 19 19 17 17 16 13 13 13 13 13 13 12 10 10 10 9 8 8 8 8 8 7 8 7 8 7 7 8 11 13
6 0 1 1 7 4 3 6 7 5 5 8 9 7 5 5 11 9 14 19 17 16 16 15 14 13 12 12 12 12 11 10 9 10 9 8 11 10 8 6 7 8 8 9 8 7 9 11 14
7 0 1 3 5 3 4 6 4 3 3 4 5 5 5 2 7 11 16 17 16 16 15 15 14 12 11 11 12 12 12 10 10 10 9 8 10 7 6 7 7 7 9 7 10 9 10 10 13
2 0 2 5 3 3 3 5 4 2 4 5 10 8 3 4 12 16 16 16 16 15 15 15 13 11 10 11 11 11 11 10 10 10 10 9 8 7 6 7 8 7 8 7 7 10 11 12 14
1 1 2 2 1 1 3 6 1 5 5 4 10 6 4 8 15 16 15 15 15 14 14 14 13 12 11 9 10 11 11 11 10 11 10 10 10 8 7 7 7 8 8 8 8 8 10 13 13
1 2 1 1 3 1 5 7 5 5 4 8 7 3 7 14 17 16 14 13 12 13 13 13 13 12 11 10 10 10 11 11 11 11 10 10 10 9 9 8 9 9 9 10 10 10 10 12 13
1 2 2 2 5 1 9 7 8 4 6 8 8 4 9 18 19 16 14 12 12 13 12 12 11 11 11 11 10 10 10 10 10 10 11 11 10 11 11 10 8 9 10 11 11 11 12 11 12
3 2 2 2 4 4 15 10 13 6 10 7 8 6 17 21 20 18 15 14 13 12 11 10 10 10 11 11 11 10 9 8 10 11 11 12 12 13 12 11 11 10 10 10 10 12 13 13 11
2 3 5 6 10 9 11 13 11 7 8 12 13 14 24 24 22 20 15 13 12 11 12 9 9 10 11 11 11 10 8 7 11 13 13 14 14 15 14 14 14 12 10 9 10 11 11 13 13
4 9 7 6 9 10 9 9 8 16 3 6 12 18 25 25 23 21 18 13 13 14 12 11 9 9 9 9 11 10 11 7 9 18 17 17 16 16 16 16 14 13 11 10 10 10 11 11 12
8 6 7 10 7 8 11 13 7 16 5 8 15 21 23 23 21 19 16 15 13 14 13 12 10 8 9 9 9 11 13 15 11 11 18 19 19 18 18 17 16 14 14 12 11 11 10 10 10
4 11 16 6 6 8 11 8 8 7 12 14 20 23 21 22 22 20 21 19 18 14 12 12 10 8 9 8 8 10 11 16 19 21 18 22 23 21 20 17 16 15 14 12 12 11 11 13 11
5 7 8 5 4 2 8 9 13 10 16 18 20 22 23 24 23 23 19 18 17 17 15 15 13 11 10 8 9 10 12 17 22 24 21 22 26 27 20 19 16 15 15 14 13 14 13 13 14
3 2 5 2 4 1 7 8 7 16 18 21 22 21 21 24 26 23 20 19 19 18 17 15 15 13 11 9 9 11 14 16 18 18 19 17 24 27 26 21 19 15 17 15 15 14 15 15 16
1 4 3 3 4 3 4 10 6 11 18 20 23 24 22 22 25 26 23 19 20 17 18 18 16 16 12 11 10 12 14 14 11 11 10 12 15 26 24 22 22 18 19 16 15 15 16 16 17
2 2 3 6 2 4 6 17 9 7 16 21 21 24 23 23 29 28 25 20 19 21 21 19 18 18 16 12 12 12 14 10 7 5 3 10 17 22 22 22 21 19 17 15 14 15 14 14 15
2 4 7 10 3 4 12 18 20 8 16 19 18 23 23 26 28 22 26 23 18 20 21 17 19 20 18 13 12 13 13 9 7 4 0 5 12 19 19 18 20 18 16 14 13 14 14 13 14
5 8 12 11 6 6 11 15 16 14 18 25 24 26 28 27 29 25 27 28 24 16 18 17 17 16 15 11 16 16 13 10 8 5 4 4 10 15 17 18 18 17 17 15 14 13 14 13 13
7 10 12 11 0 9 3 10 9 11 15 17 19 23 28 30 31 28 28 27 21 20 20 13 5 3 13 18 15 15 16 10 12 8 6 6 7 10 15 18 19 18 15 13 14 13 13 13 13
11 10 16 10 4 4 2 5 5 8 14 13 18 20 24 23 27 29 29 25 16 23 22 16 12 9 20 19 17 17 18 15 14 11 9 8 8 9 10 11 10 10 12 13 14 15 16 16 13
9 3 4 4 7 2 6 5 4 2 10 12 9 11 21 25 30 31 29 17 26 26 22 17 12 5 15 20 25 22 18 17 14 15 12 10 10 10 10 10 9 10 12 14 15 15 16 17 17
5 1 3 2 4 7 4 5 7 4 2 10 4 7 10 18 24 22 19 22 22 24 29 19 13 6 20 17 19 22 18 15 16 17 14 11 11 11 11 10 9 9 12 12 12 12 12 12 13
5 4 3 6 6 8 3 4 8 7 5 9 16 12 9 15 18 17 21 22 22 21 7 20 16 9 11 13 19 19 17 12 14 17 14 12 12 11 11 11 9 9 9 8 6 8 11 11 11
8 5 5 9 7 7 3 4 4 1 3 8 10 6 8 14 16 12 15 21 23 22 17 37 18 5 12 10 13 19 12 12 16 14 12 11 14 12 11 10 9 7 5 5 5 6 7 8 8
6 5 2 5 2 3 2 4 10 6 5 6 7 3 6 7 9 14 16 20 25 22 29 25 14 8 9 10 9 11 10 12 13 10 9 13 12 10 8 5 5 4 3 3 3 3 4 4 6
5 9 3 1 4 6 4 4 6 9 7 5 8 5 6 8 10 15 19 19 16 11 11 17 17 6 10 6 8 10 8 8 8 5 6 7 9 8 6 5 2 1 2 1 2 3 4 5 5
4 4 3 2 2 5 8 4 6 5 5 7 8 6 9 13 13 14 15 20 7 7 9 14 15 13 11 8 9 9 8 3 8 9 7 6 6 6 5 4 1 1 2 2 2 3 3 2 1
2 3 5 4 5 1 3 5 2 5 6 7 10 7 9 8 8 14 16 9 8 11 11 14 13 13 11 8 8 8 7 7 10 10 7 5 6 6 5 3 3 3 2 2 2 1 2 1 1
Wind_Direction
169 180 209 322 233 58 55 42 37 124 95 101 116 100 96 62 2 40 147 155 161 157 156 160 163 159 158 154 155 153 148 149 147 148 151 151 149 142 137 139 139 136 143 140 138 135 139 142 128
148 147 304 287 42 62 62 39 58 73 113 110 91 106 81 71 69 128 141 153 161 158 157 159 165 164 162 161 162 156 154 157 152 152 148 146 150 154 147 141 149 143 140 141 143 143 147 143 136
137 119 325 351 45 54 64 63 86 110 138 128 113 65 48 77 118 139 142 153 159 163 164 164 164 165 167 165 168 164 162 161 158 156 157 147 158 157 151 145 151 154 150 147 145 148 143 144 137
155 333 287 50 72 68 78 122 117 117 82 91 99 80 72 110 124 140 151 157 160 167 172 169 169 171 172 171 173 174 170 170 172 171 171 158 148 136 145 140 156 163 158 152 159 159 147 155 151
143 148 42 77 64 83 111 144 133 79 100 78 111 115 104 133 146 144 152 159 164 171 174 176 177 175 177 176 179 181 181 181 185 184 181 182 176 178 170 164 153 169 168 162 175 162 157 158 162
106 242 88 70 62 79 117 169 158 136 137 123 116 115 77 138 144 144 152 162 171 178 176 176 180 183 188 185 187 193 192 190 194 197 193 198 197 193 183 178 179 177 166 170 169 165 171 162 161
340 7 57 106 86 175 181 169 212 139 134 124 142 129 150 156 153 150 156 166 175 180 183 179 183 189 194 200 197 201 202 202 202 209 205 205 203 203 193 186 189 183 181 175 173 176 180 177 173
284 305 175 168 200 337 158 162 168 164 135 146 170 174 167 175 161 158 164 173 180 186 191 189 189 193 194 200 207 211 208 209 211 216 217 217 210 206 200 203 196 189 187 187 181 181 191 193 192
267 299 266 200 187 144 160 168 173 211 169 174 197 183 178 173 167 165 171 180 191 192 197 197 200 199 200 200 206 211 216 218 219 218 223 220 215 212 206 206 202 198 196 190 187 190 196 204 204
242 277 249 225 212 208 175 179 175 182 175 205 203 219 178 180 178 176 176 187 186 186 195 202 207 207 207 206 206 210 213 227 238 232 228 224 220 216 211 209 206 202 199 196 196 197 198 204 204
174 273 308 274 213 199 183 195 185 189 192 218 203 184 180 186 184 188 186 195 193 182 189 186 201 207 211 214 211 209 204 242 248 248 240 232 222 219 215 212 206 203 204 200 203 199 201 206 214
247 251 261 271 201 178 177 175 201 203 191 222 196 184 183 192 189 192 195 194 199 196 195 191 196 204 210 213 217 208 212 229 334 232 235 230 228 222 216 213 205 208 211 210 207 207 202 209 219
255 274 281 275 252 220 165 192 208 220 225 181 179 184 192 196 197 192 194 203 204 208 207 201 200 197 206 207 207 210 229 246 291 292 240 238 231 221 219 220 228 223 214 211 206 205 198 207 219
255 284 292 322 307 216 198 199 203 230 201 176 179 189 196 204 202 201 207 209 216 215 209 212 211 205 210 211 214 221 242 256 266 269 263 246 236 228 219 219 225 227 210 205 207 210 220 228 237
291 288 308 318 340 161 191 226 229 212 191 184 189 196 198 209 208 205 201 205 209 219 220 219 217 219 224 227 232 246 257 268 268 269 265 249 233 226 219 215 228 226 220 216 223 225 238 243 243
256 259 295 51 166 74 219 277 227 200 189 200 198 202 202 210 213 213 212 213 213 221 226 223 228 228 232 236 253 275 275 278 292 284 253 250 232 220 220 214 218 228 222 225 229 235 245 247 249
328 262 282 299 154 126 228 285 27 206 207 207 201 207 206 214 221 221 214 217 228 227 233 233 228 232 237 242 259 272 281 288 296 295 267 236 212 197 210 214 221 234 223 228 234 243 251 256 251
242 290 287 273 105 214 253 263 247 198 223 233 213 214 207 213 225 221 218 215 225 236 245 248 244 237 233 236 258 271 276 277 293 310 272 218 203 197 203 218 218 215 214 229 246 252 250 257 246
263 263 274 275 235 265 269 268 279 242 230 237 229 220 222 222 228 227 228 217 218 240 250 258 256 253 240 247 262 273 280 265 273 286 231 194 198 199 209 204 205 210 219 248 250 252 248 245 240
235 266 263 282 275 203 267 269 278 269 246 244 230 223 222 225 233 229 233 234 225 230 244 246 243 246 253 264 283 284 283 248 241 244 216 185 196 200 201 207 209 226 244 249 250 250 246 237 228
246 253 269 260 217 224 279 272 273 281 255 259 251 238 230 223 229 231 234 236 236 228 227 222 229 279 274 257 269 280 282 256 232 230 216 201 191 199 216 220 231 239 241 245 243 244 245 241 236
260 254 252 260 212 271 228 292 261 286 289 277 264 238 239 231 234 237 239 237 199 214 213 201 248 312 274 265 269 273 275 270 244 231 226 212 213 207 200 203 213 227 234 237 246 248 246 243 238
258 263 285 253 202 193 196 243 267 280 285 279 313 263 242 228 227 230 230 199 225 223 218 204 152 351 303 268 261 261 262 264 243 233 230 223 218 220 207 212 218 231 240 248 248 248 247 243 240
122 234 65 87 174 235 160 252 269 249 253 305 119 331 242 219 221 221 203 209 210 207 221 211 181 349 291 282 247 255 263 249 247 233 232 221 218 217 219 218 231 250 258 256 246 239 243 242 242
190 210 239 210 206 245 105 214 275 271 316 301 308 297 241 214 212 188 170 188 198 197 174 187 177 356 335 244 224 247 258 251 238 230 228 228 221 218 229 232 263 270 261 245 225 227 233 238 241
198 216 231 237 227 249 126 225 262 274 300 312 309 281 221 206 201 155 149 176 190 165 229 197 198 228 293 259 239 241 232 244 235 235 227 228 225 224 233 232 269 270 225 222 221 234 246 242 246
156 207 63 113 56 253 280 262 271 260 250 321 304 237 204 185 144 152 170 175 171 189 194 205 190 229 250 238 224 217 230 241 243 250 244 223 226 231 231 227 261 231 187 167 194 213 245 249 253
226 140 179 177 180 241 213 262 266 277 246 257 259 222 152 143 156 174 196 186 161 138 182 198 182 213 214 194 181 201 210 231 260 225 194 198 216 225 217 238 230 241 213 232 195 230 253 265 272
153 183 68 116 284 268 269 245 229 268 232 231 240 202 153 156 167 168 184 197 199 272 197 193 174 185 164 156 180 178 181 184 137 153 178 180 196 209 197 162 55 314 248 246 250 251 261 255 294
161 178 177 232 195 219 288 246 188 199 210 233 240 199 142 147 171 187 197 205 252 211 199 156 154 150 161 155 174 166 175 138 138 152 172 200 182 175 152 114 80 97 84 54 44 154 151 130 106
Height
1528 1529 1529 1528 1529 1522 1526 1524 1519 1520 1521 1524 1524 1524 1526 1529 1528 1535 1533 1537 1539 1542 1545 1547 1548 1549 1550 1552 1554 1555 1556 1558 1558 1559 1560 1561 1561 1562 1563 1564 1565 1565 1566 1566 1567 1567 1567 1568 1569
1529 1530 1530 1528 1526 1526 1529 1522 1523 1522 1524 1525 1525 1527 1527 1529 1531 1532 1536 1538 1541 1543 1545 1548 1549 1550 1551 1553 1555 1556 1558 1559 1560 1560 1561 1562 1562 1563 1564 1565 1566 1567 1567 1568 1568 1568 1569 1569 1570
1530 1530 1532 1527 1525 1527 1528 1524 1524 1525 1525 1524 1525 1527 1528 1530 1530 1534 1535 1538 1542 1545 1546 1548 1550 1551 1552 1554 1556 1557 1559 1560 1561 1561 1562 1563 1564 1564 1565 1566 1567 1568 1569 1569 1569 1569 1569 1571 1571
1530 1531 1531 1525 1524 1524 1523 1523 1525 1525 1525 1525 1526 1529 1532 1531 1532 1534 1536 1539 1542 1545 1547 1549 1550 1552 1553 1555 1556 1558 1560 1561 1562 1562 1563 1564 1565 1566 1566 1567 1568 1569 1570 1570 1569 1569 1570 1572 1573
1531 1531 1525 1524 1524 1523 1522 1524 1525 1525 1526 1527 1527 1531 1533 1533 1533 1535 1537 1540 1543 1545 1547 1549 1551 1552 1554 1556 1557 1559 1561 1562 1563 1563 1564 1565 1566 1567 1568 1568 1569 1569 1570 1570 1570 1570 1571 1573 1575
1531 1531 1527 1529 1527 1524 1524 1525 1526 1526 1527 1529 1530 1532 1535 1533 1534 1535 1538 1540 1542 1545 1546 1548 1551 1553 1554 1556 1557 1560 1562 1563 1563 1564 1564 1565 1566 1567 1567 1568 1570 1570 1570 1571 1571 1571 1573 1574 1575
1530 1527 1530 1529 1528 1527 1524 1527 1528 1528 1528 1530 1531 1532 1535 1535 1535 1536 1538 1540 1542 1544 1546 1547 1550 1552 1554 1556 1558 1559 1560 1562 1564 1564 1565 1564 1566 1567 1567 1568 1569 1570 1570 1571 1571 1572 1573 1575 1576
1530 1528 1527 1526 1529 1526 1524 1527 1528 1528 1529 1530 1531 1531 1534 1535 1535 1537 1539 1541 1544 1546 1547 1548 1549 1551 1553 1555 1557 1559 1560 1561 1563 1563 1565 1564 1565 1566 1567 1568 1568 1570 1571 1572 1572 1572 1574 1575 1577
1530 1528 1528 1524 1524 1521 1524 1526 1528 1528 1529 1529 1530 1530 1532 1533 1535 1537 1540 1542 1544 1545 1547 1548 1550 1551 1552 1554 1556 1558 1560 1561 1562 1563 1564 1565 1565 1566 1566 1567 1568 1569 1570 1571 1572 1572 1573 1575 1576
1528 1527 1522 1518 1518 1517 1520 1523 1524 1526 1528 1529 1530 1529 1530 1532 1535 1537 1539 1542 1543 1544 1547 1548 1550 1552 1553 1554 1555 1557 1559 1561 1562 1563 1563 1564 1564 1564 1565 1566 1567 1568 1569 1570 1571 1572 1573 1574 1576
1525 1522 1516 1515 1516 1516 1520 1522 1523 1525 1526 1524 1525 1527 1529 1531 1533 1536 1538 1540 1542 1544 1545 1547 1549 1551 1552 1553 1554 1555 1555 1557 1559 1560 1561 1561 1562 1563 1564 1564 1565 1567 1568 1569 1571 1572 1573 1573 1574
1523 1517 1517 1512 1513 1515 1518 1519 1520 1521 1518 1519 1522 1526 1528 1530 1531 1533 1536 1538 1541 1542 1544 1546 1548 1550 1551 1552 1553 1554 1554 1554 1553 1555 1557 1558 1559 1560 1562 1563 1564 1565 1566 1567 1568 1570 1571 1572 1573
1519 1514 1511 1512 1514 1514 1516 1518 1518 1518 1518 1519 1521 1525 1528 1531 1533 1533 1535 1538 1540 1541 1544 1545 1547 1548 1550 1551 1552 1553 1552 1552 1550 1552 1554 1555 1556 1557 1558 1560 1562 1562 1564 1565 1565 1567 1569 1570 1572
1517 1513 1510 1510 1511 1511 1514 1517 1518 1514 1516 1518 1519 1521 1526 1530 1531 1532 1533 1535 1538 1540 1542 1545 1547 1548 1549 1550 1552 1552 1551 1551 1550 1548 1550 1551 1552 1554 1555 1556 1558 1560 1561 1563 1564 1565 1567 1568 1569
1518 1515 1510 1508 1511 1509 1511 1514 1510 1511 1512 1515 1518 1518 1521 1526 1529 1529 1530 1533 1536 1537 1540 1542 1543 1546 1548 1549 1550 1551 1551 1549 1548 1544 1543 1545 1546 1550 1551 1554 1556 1558 1559 1560 1562 1562 1564 1565 1566
1518 1517 1516 1508 1510 1509 1510 1506 1502 1506 1508 1510 1514 1516 1518 1522 1524 1526 1527 1529 1529 1533 1535 1539 1542 1543 1546 1547 1549 1550 1549 1547 1544 1541 1540 1537 1539 1544 1548 1551 1553 1556 1556 1558 1559 1560 1560 1561 1562
1519 1519 1518 1510 1508 1509 1511 1503 1503 1506 1506 1506 1510 1511 1514 1518 1520 1522 1522 1525 1529 1531 1533 1535 1537 1541 1543 1545 1546 1547 1547 1546 1542 1539 1537 1536 1535 1539 1543 1547 1551 1553 1554 1556 1557 1557 1557 1558 1558
1523 1522 1517 1517 1509 1510 1509 1503 1500 1504 1506 1505 1508 1508 1509 1512 1512 1515 1519 1523 1524 1526 1532 1536 1538 1540 1540 1540 1542 1544 1545 1544 1542 1538 1536 1536 1536 1538 1541 1545 1547 1549 1552 1553 1553 1554 1553 1554 1555
1517 1520 1520 1507 1506 1508 1504 1501 1494 1501 1501 1501 1505 1506 1509 1508 1508 1514 1517 1518 1520 1527 1532 1536 1539 1543 1543 1542 1541 1540 1540 1541 1542 1539 1536 1536 1537 1538 1539 1542 1545 1547 1549 1550 1551 1551 1551 1551 1552
1515 1518 1515 1507 1505 1507 1503 1501 1493 1493 1492 1491 1495 1497 1500 1505 1504 1509 1512 1513 1518 1526 1530 1531 1535 1537 1539 1541 1541 1540 1538 1538 1537 1539 1537 1536 1536 1539 1539 1541 1543 1545 1546 1547 1548 1548 1548 1548 1548
1511 1514 1510 1511 1505 1505 1507 1504 1494 1484 1485 1485 1487 1491 1492 1497 1499 1505 1508 1511 1518 1521 1526 1531 1535 1537 1542 1541 1539 1540 1538 1536 1537 1536 1536 1537 1537 1536 1538 1539 1541 1543 1544 1544 1545 1546 1546 1547 1546
1514 1501 1502 1504 1511 1515 1507 1516 1498 1488 1483 1480 1481 1486 1488 1495 1496 1501 1504 1509 1513 1513 1515 1518 1529 1531 1533 1538 1537 1536 1536 1536 1535 1535 1536 1535 1538 1538 1537 1537 1539 1541 1541 1541 1542 1543 1543 1543 1543
1503 1500 1502 1503 1506 1509 1511 1513 1490 1494 1486 1476 1477 1480 1480 1483 1484 1489 1496 1502 1503 1506 1509 1514 1525 1519 1526 1529 1532 1533 1533 1533 1533 1533 1534 1534 1535 1537 1537 1537 1537 1538 1539 1538 1537 1539 1539 1539 1540
1500 1502 1506 1509 1504 1514 1510 1506 1490 1485 1480 1475 1481 1477 1475 1476 1477 1484 1493 1495 1498 1501 1504 1512 1518 1521 1523 1522 1525 1530 1529 1530 1530 1530 1532 1532 1533 1534 1536 1536 1536 1535 1535 1534 1534 1534 1536 1535 1536
1499 1504 1513 1517 1513 1512 1513 1511 1489 1476 1480 1479 1476 1475 1472 1471 1474 1481 1487 1493 1497 1502 1517 1521 1522 1519 1517 1517 1520 1524 1526 1527 1527 1528 1528 1529 1532 1532 1534 1534 1534 1532 1531 1532 1532 1532 1533 1533 1532
1495 1496 1504 1524 1518 1506 1515 1508 1485 1478 1480 1478 1476 1472 1470 1472 1473 1486 1492 1493 1492 1501 1503 1500 1504 1512 1510 1513 1516 1520 1523 1524 1525 1526 1526 1526 1529 1530 1532 1533 1532 1530 1529 1530 1530 1531 1531 1531 1530
1495 1499 1494 1509 1524 1511 1502 1493 1478 1473 1476 1476 1476 1474 1473 1478 1482 1485 1488 1489 1493 1496 1497 1506 1499 1505 1506 1510 1513 1518 1521 1522 1522 1523 1523 1524 1528 1528 1530 1530 1530 1528 1529 1529 1530 1530 1530 1530 1529
1484 1488 1499 1501 1522 1524 1506 1506 1488 1472 1472 1475 1475 1475 1478 1482 1483 1485 1486 1489 1493 1498 1500 1499 1501 1505 1509 1508 1513 1519 1519 1521 1521 1522 1523 1524 1526 1528 1528 1528 1528 1528 1528 1528 1529 1529 1529 1529 1528
1489 1489 1498 1495 1502 1503 1508 1496 1471 1470 1471 1473 1472 1475 1482 1485 1485 1485 1485 1489 1495 1496 1496 1497 1502 1505 1506 1508 1513 1515 1517 1519 1518 1521 1524 1525 1527 1528 1528 1528 1528 1528 1529 1528 1528 1528 1528 1527 1527
1475 1479 1480 1490 1507 1505 1498 1488 1469 1471 1472 1473 1471 1477 1484 1486 1486 1486 1487 1491 1493 1492 1490 1498 1501 1503 1507 1509 1512 1515 1519 1519 1520 1521 1523 1526 1527 1529 1529 1529 1529 1529 1529 1528 1527 1527 1527 1527 1526